| time (UTC) | temp F | wind direction | speed MPH | gust MPH | rain 1hr in | rain 24hr in | rain mn in | humidity % | barometer mb |
| 20260506223835 | 57 | 329 | 2.0 | 4.0 | 0.00 | 0.59 | 0.00 | 90 | 1010.2 |
| 20260506223336 | 57 | 316 | 2.0 | 4.0 | 0.00 | 0.59 | 0.00 | 89 | 1010.1 |
| 20260506222828 | 57 | 5 | 1.0 | 4.0 | 0.00 | 0.59 | 0.00 | 88 | 1010.2 |
| 20260506222326 | 57 | 341 | 2.0 | 5.0 | 0.00 | 0.59 | 0.00 | 88 | 1010.2 |
| 20260506221844 | 57 | 19 | 3.0 | 6.0 | 0.00 | 0.59 | 0.00 | 89 | 1010.2 |
| 20260506221338 | 57 | 26 | 3.0 | 8.0 | 0.00 | 0.59 | 0.00 | 89 | 1010.3 |
| 20260506220835 | 57 | 5 | 3.0 | 8.0 | 0.00 | 0.59 | 0.00 | 89 | 1010.1 |
| 20260506220328 | 57 | 5 | 2.0 | 4.0 | 0.00 | 0.59 | 0.00 | 90 | 1010.2 |
| 20260506215836 | 57 | 348 | 3.0 | 4.0 | 0.00 | 0.59 | 0.12 | 90 | 1010.1 |
| 20260506215335 | 57 | 330 | 3.0 | 4.0 | 0.00 | 0.59 | 0.12 | 89 | 1010.1 |
| 20260506214830 | 57 | 328 | 3.0 | 4.0 | 0.00 | 0.59 | 0.12 | 90 | 1010.0 |
| 20260506214330 | 57 | 17 | 1.0 | 4.0 | 0.00 | 0.59 | 0.12 | 90 | 1010.0 |
| 20260506213844 | 56 | 18 | 3.0 | 4.0 | 0.00 | 0.59 | 0.12 | 90 | 1010.0 |
| 20260506213343 | 56 | 324 | 1.0 | 5.0 | 0.00 | 0.59 | 0.12 | 90 | 1010.0 |
| 20260506212835 | 56 | 340 | 3.0 | 5.0 | 0.00 | 0.59 | 0.12 | 89 | 1009.9 |
| 20260506212327 | 56 | 311 | 4.0 | 5.0 | 0.00 | 0.59 | 0.12 | 88 | 1009.9 |
| 20260506211824 | 56 | 312 | 3.0 | 4.0 | 0.00 | 0.59 | 0.12 | 87 | 1009.9 |
| 20260506211342 | 56 | 323 | 3.0 | 4.0 | 0.00 | 0.59 | 0.12 | 87 | 1009.9 |
| 20260506210839 | 57 | 355 | 2.0 | 5.0 | 0.00 | 0.59 | 0.12 | 87 | 1009.9 |
| 20260506210337 | 57 | 326 | 4.0 | 5.0 | 0.00 | 0.59 | 0.12 | 86 | 1009.9 |
| 20260506205830 | 57 | 324 | 4.0 | 5.0 | 0.00 | 0.59 | 0.12 | 85 | 1009.8 |
| 20260506205330 | 58 | 339 | 1.0 | 6.0 | 0.00 | 0.59 | 0.12 | 86 | 1009.9 |
| 20260506204842 | 57 | 360 | 2.0 | 6.0 | 0.00 | 0.59 | 0.12 | 86 | 1009.8 |
| 20260506204341 | 57 | 333 | 3.0 | 5.0 | 0.00 | 0.59 | 0.12 | 85 | 1009.7 |
| 20260506203840 | 58 | 342 | 2.0 | 4.0 | 0.00 | 0.59 | 0.12 | 85 | 1009.6 |
| 20260506203335 | 58 | 13 | 3.0 | 5.0 | 0.00 | 0.59 | 0.12 | 84 | 1009.5 |
| 20260506202831 | 58 | 325 | 3.0 | 5.0 | 0.00 | 0.59 | 0.12 | 83 | 1009.5 |
| 20260506202344 | 59 | 340 | 3.0 | 4.0 | 0.00 | 0.59 | 0.12 | 82 | 1009.4 |
| 20260506201843 | 60 | 321 | 3.0 | 4.0 | 0.00 | 0.59 | 0.12 | 80 | 1009.2 |
| 20260506201338 | 61 | 124 | 2.0 | 5.0 | 0.00 | 0.59 | 0.12 | 79 | 1009.2 |
| 20260506200828 | 60 | 308 | 3.0 | 6.0 | 0.00 | 0.59 | 0.12 | 81 | 1009.2 |
| 20260506200328 | 60 | 323 | 3.0 | 9.0 | 0.00 | 0.59 | 0.12 | 82 | 1009.1 |
| 20260506195841 | 60 | 331 | 5.0 | 11.0 | 0.00 | 0.59 | 0.12 | 82 | 1009.1 |
| 20260506195341 | 59 | 333 | 6.0 | 11.0 | 0.00 | 0.59 | 0.12 | 82 | 1009.0 |
| 20260506194837 | 59 | 348 | 4.0 | 9.0 | 0.00 | 0.59 | 0.12 | 81 | 1008.8 |
| 20260506194326 | 59 | 360 | 4.0 | 8.0 | 0.00 | 0.59 | 0.12 | 81 | 1008.5 |
| 20260506193844 | 58 | 334 | 3.0 | 5.0 | 0.00 | 0.59 | 0.12 | 81 | 1008.5 |
| 20260506193333 | 59 | 321 | 3.0 | 5.0 | 0.00 | 0.59 | 0.12 | 81 | 1008.3 |
| 20260506192843 | 59 | 360 | 1.0 | 3.0 | 0.00 | 0.59 | 0.12 | 81 | 1008.2 |
| 20260506192335 | 59 | 5 | 2.0 | 5.0 | 0.00 | 0.59 | 0.12 | 80 | 1008.2 |
| 20260506191833 | 59 | 327 | 2.0 | 8.0 | 0.00 | 0.59 | 0.12 | 81 | 1008.0 |
| 20260506191331 | 59 | 327 | 5.0 | 9.0 | 0.00 | 0.59 | 0.12 | 80 | 1008.0 |
| 20260506190825 | 61 | 318 | 6.0 | 8.0 | 0.00 | 0.59 | 0.12 | 76 | 1007.9 |
| 20260506190343 | 62 | 316 | 0.0 | 4.0 | 0.00 | 0.59 | 0.12 | 74 | 1007.9 |
| 20260506185837 | 62 | 317 | 2.0 | 4.0 | 0.00 | 0.59 | 0.12 | 75 | 1007.8 |
| 20260506185333 | 62 | 146 | 2.0 | 4.0 | 0.00 | 0.59 | 0.12 | 74 | 1007.8 |
| 20260506184828 | 62 | 284 | 0.0 | 2.0 | 0.00 | 0.59 | 0.12 | 74 | 1007.8 |
| 20260506184341 | 63 | 291 | 0.0 | 3.0 | 0.00 | 0.59 | 0.12 | 74 | 1007.7 |
| 20260506183839 | 63 | 270 | 1.0 | 3.0 | 0.00 | 0.59 | 0.12 | 74 | 1007.6 |
| 20260506183335 | 64 | 303 | 2.0 | 9.0 | 0.00 | 0.59 | 0.12 | 74 | 1007.6 |
| 20260506182830 | 64 | 209 | 4.0 | 9.0 | 0.00 | 0.59 | 0.12 | 73 | 1007.5 |
| 20260506182326 | 64 | 154 | 3.0 | 10.0 | 0.00 | 0.59 | 0.12 | 74 | 1007.5 |
| 20260506181844 | 65 | 162 | 4.0 | 10.0 | 0.00 | 0.59 | 0.12 | 73 | 1007.5 |
| 20260506181343 | 65 | 143 | 3.0 | 13.0 | 0.00 | 0.59 | 0.12 | 66 | 1007.4 |
| 20260506180839 | 65 | 210 | 8.0 | 13.0 | 0.00 | 0.59 | 0.12 | 65 | 1007.3 |
| 20260506180336 | 65 | 231 | 6.0 | 15.0 | 0.00 | 0.59 | 0.12 | 65 | 1007.3 |
| 20260506175832 | 65 | 218 | 5.0 | 9.0 | 0.00 | 0.59 | 0.12 | 68 | 1007.3 |
| 20260506175326 | 66 | 134 | 3.0 | 12.0 | 0.00 | 0.59 | 0.12 | 68 | 1007.2 |
| 20260506174825 | 66 | 215 | 5.0 | 14.0 | 0.00 | 0.59 | 0.12 | 65 | 1007.1 |
| 20260506174326 | 66 | 218 | 6.0 | 14.0 | 0.00 | 0.59 | 0.12 | 65 | 1007.1 |
| 20260506173841 | 66 | 194 | 2.0 | 14.0 | 0.00 | 0.59 | 0.12 | 66 | 1006.9 |
| 20260506173342 | 66 | 253 | 7.0 | 13.0 | 0.00 | 0.59 | 0.12 | 65 | 1007.0 |
| 20260506172831 | 66 | 223 | 7.0 | 14.0 | 0.00 | 0.59 | 0.12 | 65 | 1006.9 |
| 20260506172329 | 66 | 216 | 6.0 | 16.0 | 0.00 | 0.59 | 0.12 | 65 | 1006.9 |
| 20260506171829 | 66 | 208 | 9.0 | 16.0 | 0.00 | 0.59 | 0.12 | 65 | 1007.0 |
| 20260506171342 | 67 | 188 | 4.0 | 18.0 | 0.00 | 0.59 | 0.12 | 65 | 1007.0 |
| 20260506170838 | 67 | 222 | 11.0 | 17.0 | 0.00 | 0.59 | 0.12 | 65 | 1006.8 |
| 20260506170335 | 67 | 302 | 7.0 | 14.0 | 0.00 | 0.59 | 0.12 | 65 | 1006.9 |
| 20260506165833 | 67 | 231 | 10.0 | 18.0 | 0.00 | 0.59 | 0.12 | 64 | 1006.8 |
| 20260506165333 | 67 | 220 | 11.0 | 18.0 | 0.00 | 0.59 | 0.12 | 64 | 1006.8 |
| 20260506164827 | 67 | 149 | 8.0 | 14.0 | 0.00 | 0.59 | 0.12 | 65 | 1006.7 |
| 20260506164327 | 67 | 231 | 8.0 | 15.0 | 0.00 | 0.59 | 0.12 | 66 | 1006.7 |
| 20260506163841 | 68 | 183 | 7.0 | 19.0 | 0.00 | 0.59 | 0.12 | 65 | 1006.7 |
| 20260506163338 | 68 | 237 | 10.0 | 19.0 | 0.00 | 0.59 | 0.12 | 64 | 1006.7 |
| 20260506162835 | 68 | 219 | 10.0 | 16.0 | 0.00 | 0.59 | 0.12 | 65 | 1006.6 |
| 20260506162330 | 68 | 240 | 9.0 | 18.0 | 0.00 | 0.59 | 0.12 | 65 | 1006.6 |
| 20260506161829 | 68 | 222 | 6.0 | 20.0 | 0.00 | 0.59 | 0.12 | 66 | 1006.5 |
| 20260506161325 | 68 | 196 | 12.0 | 20.0 | 0.00 | 0.59 | 0.12 | 66 | 1006.5 |
| 20260506160839 | 68 | 218 | 8.0 | 20.0 | 0.00 | 0.59 | 0.12 | 68 | 1006.5 |
| 20260506160338 | 68 | 222 | 12.0 | 25.0 | 0.00 | 0.59 | 0.12 | 67 | 1006.5 |
| 20260506155830 | 68 | 211 | 9.0 | 19.0 | 0.00 | 0.59 | 0.12 | 67 | 1006.6 |
| 20260506155326 | 68 | 219 | 7.0 | 23.0 | 0.00 | 0.59 | 0.12 | 67 | 1006.5 |
| 20260506154839 | 68 | 221 | 8.0 | 22.0 | 0.00 | 0.59 | 0.12 | 68 | 1006.5 |
| 20260506154338 | 68 | 211 | 10.0 | 20.0 | 0.00 | 0.59 | 0.12 | 68 | 1006.5 |
| 20260506153834 | 68 | 259 | 8.0 | 15.0 | 0.00 | 0.59 | 0.12 | 69 | 1006.5 |
| 20260506153329 | 68 | 250 | 5.0 | 20.0 | 0.00 | 0.59 | 0.12 | 69 | 1006.5 |
| 20260506152842 | 68 | 221 | 5.0 | 20.0 | 0.00 | 0.59 | 0.12 | 70 | 1006.4 |
| 20260506152336 | 69 | 184 | 9.0 | 17.0 | 0.00 | 0.59 | 0.12 | 67 | 1006.5 |
| 20260506151836 | 69 | 249 | 5.0 | 15.0 | 0.00 | 0.59 | 0.12 | 70 | 1006.5 |
| 20260506151334 | 69 | 213 | 8.0 | 15.0 | 0.00 | 0.59 | 0.12 | 68 | 1006.4 |
| 20260506150826 | 69 | 198 | 4.0 | 13.0 | 0.00 | 0.59 | 0.12 | 70 | 1006.6 |
| 20260506150326 | 68 | 196 | 8.0 | 17.0 | 0.00 | 0.59 | 0.12 | 71 | 1006.6 |
| 20260506145839 | 68 | 224 | 8.0 | 17.0 | 0.00 | 0.59 | 0.12 | 70 | 1006.5 |
| 20260506145337 | 68 | 207 | 6.0 | 14.0 | 0.00 | 0.59 | 0.12 | 71 | 1006.6 |
| 20260506144836 | 67 | 188 | 8.0 | 18.0 | 0.00 | 0.59 | 0.12 | 73 | 1006.5 |
| 20260506144330 | 66 | 195 | 9.0 | 21.0 | 0.00 | 0.59 | 0.12 | 73 | 1006.6 |
| 20260506143844 | 67 | 153 | 12.0 | 22.0 | 0.00 | 0.59 | 0.12 | 74 | 1006.7 |
| 20260506143341 | 67 | 182 | 11.0 | 21.0 | 0.00 | 0.59 | 0.12 | 73 | 1006.6 |
| 20260506142838 | 67 | 171 | 9.0 | 24.0 | 0.00 | 0.59 | 0.12 | 76 | 1006.5 |
| 20260506142335 | 66 | 205 | 8.0 | 24.0 | 0.00 | 0.59 | 0.12 | 76 | 1006.6 |
| 20260506141831 | 67 | 144 | 9.0 | 19.0 | 0.00 | 0.59 | 0.12 | 76 | 1006.7 |
| 20260506141328 | 67 | 169 | 10.0 | 18.0 | 0.00 | 0.59 | 0.12 | 74 | 1006.7 |
| 20260506140843 | 67 | 202 | 10.0 | 22.0 | 0.00 | 0.59 | 0.12 | 74 | 1006.7 |
| 20260506140325 | 67 | 211 | 12.0 | 23.0 | 0.00 | 0.59 | 0.12 | 74 | 1006.7 |
| 20260506135842 | 68 | 155 | 11.0 | 21.0 | 0.00 | 0.59 | 0.12 | 72 | 1006.6 |
| 20260506135338 | 68 | 243 | 8.0 | 17.0 | 0.00 | 0.59 | 0.12 | 71 | 1006.7 |
| 20260506134835 | 67 | 233 | 9.0 | 22.0 | 0.00 | 0.59 | 0.12 | 73 | 1006.7 |
| 20260506134331 | 68 | 209 | 11.0 | 17.0 | 0.00 | 0.59 | 0.12 | 69 | 1006.7 |
| 20260506133831 | 69 | 249 | 9.0 | 22.0 | 0.00 | 0.59 | 0.12 | 66 | 1006.7 |
| 20260506133327 | 68 | 202 | 12.0 | 22.0 | 0.00 | 0.59 | 0.12 | 65 | 1006.7 |
| 20260506132840 | 68 | 239 | 17.0 | 28.0 | 0.00 | 0.59 | 0.12 | 64 | 1006.7 |
| 20260506132339 | 68 | 205 | 13.0 | 28.0 | 0.00 | 0.59 | 0.12 | 66 | 1006.7 |
| 20260506131832 | 68 | 222 | 13.0 | 20.0 | 0.00 | 0.59 | 0.12 | 65 | 1006.8 |
| 20260506131334 | 68 | 224 | 12.0 | 24.0 | 0.00 | 0.59 | 0.12 | 64 | 1006.9 |
| 20260506130830 | 68 | 229 | 14.0 | 25.0 | 0.00 | 0.59 | 0.12 | 66 | 1006.7 |
| 20260506130325 | 68 | 259 | 15.0 | 25.0 | 0.00 | 0.59 | 0.12 | 66 | 1006.8 |
| 20260506125840 | 68 | 237 | 14.0 | 25.0 | 0.00 | 0.59 | 0.12 | 67 | 1006.8 |
| 20260506125333 | 68 | 219 | 14.0 | 25.0 | 0.00 | 0.59 | 0.12 | 66 | 1006.7 |
| 20260506124829 | 68 | 203 | 13.0 | 21.0 | 0.00 | 0.59 | 0.12 | 67 | 1006.7 |
| 20260506124326 | 68 | 233 | 10.0 | 24.0 | 0.00 | 0.59 | 0.12 | 68 | 1006.8 |
| 20260506123843 | 68 | 245 | 11.0 | 28.0 | 0.00 | 0.59 | 0.12 | 68 | 1006.9 |
| 20260506123341 | 67 | 213 | 14.0 | 27.0 | 0.00 | 0.59 | 0.12 | 68 | 1006.9 |
| 20260506122838 | 67 | 218 | 18.0 | 26.0 | 0.00 | 0.59 | 0.12 | 66 | 1006.9 |
| 20260506122338 | 67 | 190 | 15.0 | 25.0 | 0.00 | 0.59 | 0.12 | 67 | 1006.9 |
| 20260506121834 | 67 | 182 | 12.0 | 25.0 | 0.00 | 0.59 | 0.12 | 70 | 1006.8 |
| 20260506121329 | 67 | 214 | 16.0 | 25.0 | 0.00 | 0.59 | 0.12 | 69 | 1006.8 |
| 20260506120828 | 67 | 180 | 9.0 | 21.0 | 0.00 | 0.59 | 0.12 | 72 | 1006.7 |
| 20260506120342 | 67 | 220 | 12.0 | 21.0 | 0.00 | 0.59 | 0.12 | 73 | 1006.8 |
| 20260506115334 | 66 | 156 | 13.0 | 28.0 | 0.00 | 0.59 | 0.12 | 76 | 1006.9 |
| 20260506114835 | 66 | 154 | 11.0 | 24.0 | 0.00 | 0.59 | 0.12 | 75 | 1006.9 |
| 20260506114328 | 66 | 146 | 13.0 | 22.0 | 0.00 | 0.59 | 0.12 | 75 | 1006.9 |
| 20260506113844 | 67 | 196 | 10.0 | 20.0 | 0.00 | 0.59 | 0.12 | 74 | 1006.7 |
| 20260506113342 | 66 | 188 | 12.0 | 25.0 | 0.00 | 0.59 | 0.12 | 75 | 1006.8 |
| 20260506112834 | 65 | 44 | 13.0 | 25.0 | 0.00 | 0.59 | 0.12 | 76 | 1006.9 |
| 20260506111828 | 65 | 198 | 15.0 | 25.0 | 0.00 | 0.59 | 0.12 | 74 | 1007.2 |
| 20260506111343 | 65 | 217 | 14.0 | 25.0 | 0.00 | 0.59 | 0.12 | 74 | 1007.3 |
| 20260506110843 | 65 | 202 | 13.0 | 31.0 | 0.00 | 0.59 | 0.12 | 75 | 1007.4 |
| 20260506110338 | 65 | 214 | 14.0 | 31.0 | 0.00 | 0.59 | 0.12 | 74 | 1007.2 |
| 20260506105832 | 65 | 213 | 13.0 | 22.0 | 0.00 | 0.59 | 0.12 | 78 | 1007.4 |
| 20260506105329 | 65 | 188 | 14.0 | 21.0 | 0.00 | 0.59 | 0.12 | 79 | 1007.4 |
| 20260506104824 | 65 | 211 | 10.0 | 21.0 | 0.00 | 0.59 | 0.12 | 79 | 1007.4 |
| 20260506104341 | 65 | 201 | 12.0 | 23.0 | 0.00 | 0.59 | 0.12 | 78 | 1007.5 |
| 20260506103837 | 64 | 254 | 11.0 | 23.0 | 0.00 | 0.59 | 0.12 | 79 | 1007.4 |
| 20260506103333 | 65 | 171 | 11.0 | 21.0 | 0.00 | 0.59 | 0.12 | 79 | 1007.5 |
| 20260506102826 | 64 | 229 | 10.0 | 21.0 | 0.00 | 0.59 | 0.12 | 79 | 1007.6 |
| 20260506102341 | 64 | 193 | 12.0 | 19.0 | 0.00 | 0.59 | 0.12 | 78 | 1007.6 |
| 20260506101836 | 64 | 169 | 10.0 | 20.0 | 0.00 | 0.59 | 0.12 | 78 | 1007.6 |
| 20260506101330 | 64 | 204 | 12.0 | 19.0 | 0.00 | 0.59 | 0.12 | 78 | 1007.7 |
| 20260506100825 | 64 | 205 | 12.0 | 19.0 | 0.00 | 0.59 | 0.12 | 79 | 1007.7 |
| 20260506100340 | 64 | 180 | 12.0 | 20.0 | 0.00 | 0.59 | 0.12 | 78 | 1007.8 |
| 20260506095836 | 64 | 218 | 11.0 | 22.0 | 0.00 | 0.59 | 0.12 | 79 | 1007.8 |
| 20260506095336 | 64 | 198 | 10.0 | 23.0 | 0.00 | 0.59 | 0.12 | 78 | 1007.8 |
| 20260506094830 | 63 | 243 | 10.0 | 23.0 | 0.00 | 0.59 | 0.12 | 79 | 1007.8 |
| 20260506094327 | 63 | 169 | 12.0 | 18.0 | 0.00 | 0.59 | 0.12 | 78 | 1007.9 |
| 20260506093843 | 64 | 192 | 9.0 | 18.0 | 0.00 | 0.59 | 0.12 | 79 | 1007.9 |
| 20260506093343 | 64 | 179 | 9.0 | 18.0 | 0.00 | 0.59 | 0.12 | 79 | 1007.8 |
| 20260506092839 | 63 | 219 | 8.0 | 19.0 | 0.00 | 0.59 | 0.12 | 81 | 1007.8 |
| 20260506092334 | 63 | 197 | 11.0 | 18.0 | 0.00 | 0.59 | 0.12 | 79 | 1007.8 |
| 20260506091833 | 63 | 178 | 12.0 | 20.0 | 0.00 | 0.59 | 0.12 | 79 | 1007.7 |
| 20260506091326 | 64 | 204 | 7.0 | 14.0 | 0.00 | 0.59 | 0.12 | 79 | 1007.8 |
| 20260506090844 | 64 | 184 | 10.0 | 15.0 | 0.00 | 0.59 | 0.12 | 77 | 1007.7 |
| 20260506090343 | 64 | 212 | 8.0 | 12.0 | 0.00 | 0.59 | 0.12 | 78 | 1007.7 |
| 20260506085838 | 63 | 160 | 9.0 | 13.0 | 0.00 | 0.67 | 0.12 | 78 | 1007.7 |
| 20260506085336 | 63 | 161 | 7.0 | 12.0 | 0.00 | 0.67 | 0.12 | 77 | 1007.9 |
| 20260506084830 | 63 | 182 | 8.0 | 12.0 | 0.00 | 0.67 | 0.12 | 78 | 1007.9 |
| 20260506084342 | 63 | 193 | 5.0 | 10.0 | 0.00 | 0.67 | 0.12 | 79 | 1007.9 |
| 20260506083840 | 63 | 156 | 6.0 | 12.0 | 0.00 | 0.67 | 0.12 | 79 | 1007.9 |
| 20260506083335 | 63 | 190 | 8.0 | 12.0 | 0.00 | 0.67 | 0.12 | 78 | 1007.9 |
| 20260506082835 | 63 | 178 | 8.0 | 12.0 | 0.00 | 0.67 | 0.12 | 79 | 1007.9 |
| 20260506082330 | 63 | 187 | 6.0 | 10.0 | 0.00 | 0.67 | 0.12 | 77 | 1007.8 |
| 20260506081829 | 63 | 209 | 6.0 | 10.0 | 0.00 | 0.67 | 0.12 | 78 | 1007.9 |
| 20260506081329 | 63 | 179 | 7.0 | 10.0 | 0.00 | 0.67 | 0.12 | 79 | 1007.8 |
| 20260506080844 | 63 | 156 | 7.0 | 12.0 | 0.00 | 0.67 | 0.12 | 79 | 1007.9 |
| 20260506080325 | 63 | 173 | 6.0 | 12.0 | 0.00 | 0.67 | 0.12 | 79 | 1007.9 |
| 20260506073339 | 63 | 180 | 4.0 | 10.0 | 0.00 | 0.67 | 0.12 | 79 | 1007.8 |
| 20260506072836 | 63 | 180 | 4.0 | 9.0 | 0.00 | 0.67 | 0.12 | 80 | 1007.8 |
| 20260506072332 | 62 | 36 | 4.0 | 6.0 | 0.00 | 0.67 | 0.12 | 81 | 1007.7 |
| 20260506071824 | 62 | 94 | 3.0 | 5.0 | 0.00 | 0.67 | 0.12 | 82 | 1007.6 |
| 20260506071339 | 61 | 175 | 3.0 | 5.0 | 0.00 | 0.67 | 0.12 | 82 | 1007.6 |
| 20260506070836 | 61 | 206 | 1.0 | 5.0 | 0.00 | 0.67 | 0.12 | 85 | 1007.5 |
| 20260506070335 | 61 | 196 | 3.0 | 5.0 | 0.00 | 0.67 | 0.12 | 85 | 1007.5 |
| 20260506062335 | 57 | 337 | 0.0 | 0.0 | 0.00 | 0.67 | 0.12 | 94 | 1007.0 |
| 20260506061829 | 57 | 337 | 0.0 | 1.0 | 0.00 | 0.67 | 0.12 | 95 | 1007.0 |
| 20260506061328 | 57 | 332 | 0.0 | 3.0 | 0.00 | 0.67 | 0.12 | 95 | 1007.1 |
| 20260506060842 | 56 | 325 | 1.0 | 3.0 | 0.00 | 0.67 | 0.12 | 94 | 1007.0 |
| 20260506060338 | 56 | 325 | 2.0 | 3.0 | 0.00 | 0.67 | 0.12 | 94 | 1007.2 |
| 20260506051331 | 56 | 344 | 0.0 | 4.0 | 0.24 | 0.67 | 0.12 | 93 | 1007.5 |
| 20260506050830 | 56 | 300 | 0.0 | 6.0 | 0.24 | 0.67 | 0.12 | 93 | 1007.9 |
| 20260506050343 | 56 | 319 | 4.0 | 6.0 | 0.24 | 0.67 | 0.12 | 93 | 1007.8 |
| 20260506044842 | 56 | 26 | 4.0 | 8.0 | 0.20 | 0.67 | 0.11 | 92 | 1007.9 |
| 20260506044339 | 56 | 323 | 3.0 | 8.0 | 0.12 | 0.59 | 0.09 | 92 | 1008.1 |
| 20260506043834 | 56 | 274 | 5.0 | 10.0 | 0.08 | 0.55 | 0.09 | 92 | 1008.2 |
| 20260506043334 | 56 | 245 | 7.0 | 10.0 | 0.04 | 0.51 | 0.08 | 93 | 1008.1 |
| 20260506042828 | 56 | 281 | 7.0 | 10.0 | 0.00 | 0.47 | 0.07 | 93 | 1008.1 |
| 20260506042341 | 56 | 242 | 6.0 | 10.0 | 0.00 | 0.47 | 0.07 | 94 | 1008.1 |
| 20260506041841 | 56 | 323 | 0.0 | 2.0 | 0.00 | 0.47 | 0.07 | 94 | 1007.9 |
| 20260506041336 | 56 | 325 | 1.0 | 3.0 | 0.00 | 0.47 | 0.07 | 94 | 1007.7 |
| 20260506040834 | 55 | 342 | 2.0 | 5.0 | 0.00 | 0.47 | 0.07 | 94 | 1007.7 |
| 20260506040333 | 55 | 350 | 3.0 | 5.0 | 0.00 | 0.47 | 0.07 | 94 | 1007.9 |
| 20260506035826 | 55 | 16 | 0.0 | 3.0 | 0.00 | 1.73 | 0.07 | 94 | 1007.9 |
| 20260506035324 | 55 | 328 | 1.0 | 4.0 | 0.00 | 1.73 | 0.07 | 94 | 1008.0 |
| 20260506034836 | 55 | 316 | 3.0 | 4.0 | 0.00 | 1.73 | 0.07 | 93 | 1008.1 |
| 20260506034338 | 55 | 318 | 2.0 | 3.0 | 0.00 | 1.73 | 0.07 | 93 | 1008.1 |
| 20260506033837 | 56 | 321 | 2.0 | 4.0 | 0.00 | 1.73 | 0.07 | 93 | 1008.3 |
| 20260506033331 | 56 | 329 | 2.0 | 4.0 | 0.00 | 1.73 | 0.07 | 93 | 1008.1 |
| 20260506032828 | 56 | 327 | 3.0 | 5.0 | 0.00 | 1.73 | 0.07 | 93 | 1008.2 |
| 20260506032342 | 56 | 323 | 4.0 | 5.0 | 0.00 | 1.73 | 0.07 | 93 | 1008.3 |
| 20260506031842 | 56 | 316 | 3.0 | 4.0 | 0.00 | 1.73 | 0.07 | 92 | 1008.1 |
| 20260506031338 | 56 | 335 | 2.0 | 4.0 | 0.00 | 1.73 | 0.07 | 93 | 1008.4 |
| 20260506030831 | 56 | 321 | 2.0 | 4.0 | 0.00 | 1.73 | 0.07 | 92 | 1008.5 |
| 20260506030328 | 56 | 311 | 2.0 | 4.0 | 0.00 | 1.73 | 0.07 | 92 | 1008.5 |
| 20260506025842 | 55 | 300 | 1.0 | 4.0 | 0.00 | 3.03 | 0.07 | 92 | 1008.5 |
| 20260506025340 | 55 | 303 | 2.0 | 5.0 | 0.00 | 3.03 | 0.07 | 92 | 1008.4 |
| 20260506024834 | 55 | 305 | 3.0 | 6.0 | 0.00 | 3.03 | 0.07 | 92 | 1008.2 |
| 20260506024330 | 55 | 319 | 2.0 | 6.0 | 0.00 | 3.03 | 0.07 | 93 | 1008.0 |
| 20260506023827 | 55 | 338 | 2.0 | 3.0 | 0.00 | 3.03 | 0.07 | 93 | 1007.9 |
| 20260506023342 | 55 | 320 | 2.0 | 4.0 | 0.00 | 3.03 | 0.07 | 93 | 1008.0 |
| 20260506022839 | 55 | 302 | 2.0 | 5.0 | 0.00 | 3.03 | 0.07 | 92 | 1008.2 |
| 20260506022338 | 55 | 298 | 3.0 | 5.0 | 0.00 | 3.03 | 0.07 | 92 | 1008.4 |
| 20260506021830 | 55 | 311 | 4.0 | 6.0 | 0.00 | 3.03 | 0.07 | 92 | 1008.5 |
| 20260506021329 | 55 | 308 | 3.0 | 6.0 | 0.00 | 3.03 | 0.07 | 92 | 1008.5 |
| 20260506020840 | 55 | 329 | 4.0 | 8.0 | 0.00 | 3.03 | 0.07 | 92 | 1008.5 |
| 20260506020337 | 55 | 332 | 3.0 | 8.0 | 0.00 | 3.03 | 0.07 | 93 | 1008.6 |
| 20260506015837 | 55 | 313 | 4.0 | 5.0 | 0.00 | 5.04 | 0.07 | 92 | 1008.7 |
| 20260506015330 | 55 | 304 | 3.0 | 4.0 | 0.00 | 5.04 | 0.07 | 92 | 1008.9 |
| 20260506014826 | 56 | 296 | 1.0 | 3.0 | 0.00 | 5.04 | 0.07 | 91 | 1009.0 |
| 20260506014339 | 56 | 297 | 2.0 | 4.0 | 0.00 | 5.04 | 0.07 | 91 | 1009.1 |
| 20260506013835 | 56 | 309 | 1.0 | 4.0 | 0.00 | 5.04 | 0.07 | 91 | 1009.2 |
| 20260506013330 | 57 | 273 | 1.0 | 5.0 | 0.00 | 5.04 | 0.07 | 90 | 1009.3 |
| 20260506012826 | 57 | 307 | 3.0 | 8.0 | 0.00 | 5.04 | 0.07 | 90 | 1009.2 |
| 20260506012343 | 57 | 325 | 4.0 | 9.0 | 0.00 | 5.04 | 0.07 | 91 | 1009.0 |
| 20260506011835 | 57 | 344 | 4.0 | 9.0 | 0.00 | 5.04 | 0.07 | 91 | 1009.2 |
| 20260506011335 | 57 | 337 | 4.0 | 6.0 | 0.04 | 5.04 | 0.07 | 91 | 1009.3 |
| 20260506010832 | 57 | 329 | 3.0 | 8.0 | 0.08 | 5.04 | 0.07 | 91 | 1009.3 |
| 20260506010326 | 57 | 322 | 4.0 | 8.0 | 0.12 | 5.04 | 0.07 | 92 | 1009.2 |
| 20260506005826 | 57 | 317 | 5.0 | 8.0 | 0.12 | 6.30 | 0.07 | 92 | 1009.3 |
| 20260506005341 | 57 | 331 | 3.0 | 6.0 | 0.12 | 6.30 | 0.07 | 92 | 1009.4 |
| 20260506004838 | 57 | 345 | 2.0 | 6.0 | 0.16 | 6.30 | 0.07 | 92 | 1009.5 |
| 20260506004338 | 57 | 323 | 4.0 | 6.0 | 0.24 | 6.30 | 0.07 | 93 | 1009.6 |
| 20260506003832 | 57 | 313 | 3.0 | 6.0 | 0.31 | 6.30 | 0.07 | 93 | 1009.6 |
| 20260506003333 | 57 | 323 | 3.0 | 8.0 | 0.35 | 6.30 | 0.07 | 93 | 1009.6 |
| 20260506002825 | 57 | 308 | 3.0 | 8.0 | 0.35 | 6.30 | 0.07 | 92 | 1009.6 |
| 20260506002343 | 57 | 305 | 3.0 | 6.0 | 0.35 | 6.30 | 0.07 | 92 | 1009.8 |
| 20260506001838 | 57 | 335 | 3.0 | 8.0 | 0.31 | 6.26 | 0.06 | 92 | 1010.0 |
| 20260506001334 | 57 | 9 | 2.0 | 9.0 | 0.31 | 6.26 | 0.06 | 92 | 1010.1 |
| 20260506000832 | 57 | 315 | 7.0 | 9.0 | 0.28 | 6.22 | 0.06 | 92 | 1010.4 |
| 20260506000330 | 57 | 267 | 4.0 | 7.0 | 0.24 | 6.18 | 0.05 | 92 | 1010.6 |
| 20260505235824 | 57 | 244 | 5.0 | 7.0 | 0.24 | 7.91 | 0.05 | 92 | 1010.6 |
| 20260505235340 | 57 | 247 | 4.0 | 9.0 | 0.24 | 7.91 | 0.05 | 92 | 1010.5 |
| 20260505234833 | 57 | 268 | 3.0 | 6.0 | 0.16 | 7.83 | 0.03 | 91 | 1010.5 |
| 20260505234332 | 57 | 246 | 1.0 | 5.0 | 0.12 | 7.80 | 0.02 | 91 | 1010.6 |
| 20260505233826 | 58 | 322 | 3.0 | 5.0 | 0.00 | 7.68 | 0.00 | 89 | 1010.5 |
| 20260505233324 | 58 | 316 | 3.0 | 5.0 | 0.00 | 7.68 | 0.00 | 88 | 1010.4 |
| 20260505232839 | 58 | 334 | 0.0 | 4.0 | 0.00 | 7.68 | 0.00 | 88 | 1010.4 |
| 20260505232335 | 58 | 333 | 1.0 | 5.0 | 0.00 | 7.68 | 0.00 | 88 | 1010.5 |
| 20260505231833 | 57 | 333 | 3.0 | 5.0 | 0.00 | 7.68 | 0.00 | 89 | 1010.5 |
| 20260505231326 | 57 | 310 | 4.0 | 5.0 | 0.00 | 7.68 | 0.00 | 90 | 1010.6 |
| 20260505230825 | 57 | 309 | 4.0 | 6.0 | 0.00 | 7.68 | 0.00 | 90 | 1010.7 |
| 20260505230345 | 57 | 313 | 3.0 | 5.0 | 0.00 | 7.68 | 0.00 | 90 | 1010.6 |
| 20260505225833 | 57 | 317 | 2.0 | 4.0 | 0.00 | 9.41 | 0.00 | 90 | 1010.5 |
| 20260505225329 | 57 | 317 | 3.0 | 4.0 | 0.00 | 9.41 | 0.00 | 91 | 1010.5 |
| 20260505224841 | 57 | 317 | 3.0 | 4.0 | 0.00 | 9.41 | 0.00 | 91 | 1010.7 |
| 20260505224339 | 57 | 316 | 3.0 | 5.0 | 0.00 | 9.41 | 0.00 | 91 | 1010.7 |